Location: Alto Pass Reservoir
(37.5801°N, 89.3084°W)
Time: 14:07:55
(UTC+00:00)

ISS - Visible Passes

Search period start: 25 May 2022 00:00
Search period end: 04 June 2022 00:00
Orbit: 414 x 421 km, 51.6° (Epoch: 25 May)

Date Brightness Start Highest point End Pass type
(mag) Time Alt. Az. Time Alt. Az. Time Alt. Az.
25 May -1.1 04:24:32 10° NNW 04:25:59 20° NNW 04:25:59 20° NNW visible
26 May -1.6 03:36:45 10° NNW 03:39:19 20° NNE 03:39:31 20° NNE visible
27 May -1.1 02:49:02 10° NNW 02:51:01 15° NNE 02:52:59 10° ENE visible
27 May -1.1 04:24:52 10° NW 04:25:58 19° NW 04:25:58 19° NW visible
28 May -0.9 02:01:31 10° N 02:02:38 11° NNE 02:03:45 10° NE visible
28 May -2.6 03:36:50 10° NW 03:39:31 41° N 03:39:31 41° N visible
29 May -2.2 02:48:54 10° NNW 02:51:51 28° NNE 02:53:06 22° ENE visible
29 May -0.8 04:25:39 10° WNW 04:26:01 12° WNW 04:26:01 12° WNW visible
30 May -1.6 02:01:01 10° NNW 02:03:33 19° NNE 02:06:04 10° ENE visible
30 May -2.6 03:37:14 10° WNW 03:39:37 39° W 03:39:37 39° W visible
31 May -3.8 02:49:02 10° NW 02:52:23 79° NE 02:53:15 46° ESE visible
01 Jun -3.0 02:00:55 10° NW 02:04:09 43° NE 02:06:54 13° ESE visible
01 Jun -1.4 03:38:23 10° W 03:39:49 16° WSW 03:39:49 16° WSW visible
02 Jun -2.5 02:49:35 10° WNW 02:52:35 30° SW 02:53:31 26° SSW visible
03 Jun -3.4 02:01:08 10° WNW 02:04:26 59° SW 02:07:16 13° SE visible
